This demonstration page uses our WeatherBlox Daily Observations layout. Learn more.

Hourly Observations for February 19, 2017

Temp ( °F °C ) Dew Point ( °F °C ) Humidity (%) Winds ( mph kmh ) Pressure ( in mb ) Visibility ( mi km ) Precip ( " mm )
12:15 am 00:15 Partly Cloudy 57 14 36 2 44 44 Calm 29.8 1009 10 16.09344 0 0
12:35 am 00:35 Mostly Cloudy 54 12 37 3 54 54 NNW 5 7 29.8 1009 10 16.09344 0 0
12:55 am 00:55 Cloudy 55 13 37 3 51 51 SW 5 7 29.8 1009 10 16.09344 0 0
1:15 am 01:15 Cloudy 59 15 37 3 45 45 Calm 29.8 1009 10 16.09344 0 0
1:35 am 01:35 Cloudy 57 14 41 5 55 55 WSW 5 7 29.8 1009 10 16.09344 0 0
1:55 am 01:55 Cloudy 59 15 41 5 51 51 Calm 29.8 1009 10 16.09344 0 0
2:15 am 02:15 Cloudy 59 15 41 5 51 51 N 5 7 29.8 1009 10 16.09344 0 0
2:35 am 02:35 Cloudy 63 17 43 6 49 49 N 7 11 29.8 1009 10 16.09344 0 0
2:55 am 02:55 Cloudy 61 16 43 6 52 52 Calm 29.8 1009 10 16.09344 0 0
3:15 am 03:15 Cloudy 61 16 45 7 55 55 NW 12 19 29.8 1009 10 16.09344 0 0
3:35 am 03:35 Cloudy 63 17 46 8 56 56 WNW 14 22 29.83 1010 10 16.09344 0 0
3:55 am 03:55 Cloudy with Light Drizzle 61 16 50 10 68 68 WNW 12 19 29.83 1010 10 16.09344 0 0
4:15 am 04:15 Cloudy with Light Rain 59 15 52 11 77 77 NNW 9 15 29.83 1010 10 16.09344 0 0
4:35 am 04:35 Cloudy with Light Rain 59 15 52 11 77 77 NW 9 15 29.83 1010 10 16.09344 0 0
4:55 am 04:55 Cloudy with Light Drizzle 57 14 50 10 77 77 NNW 10 17 29.85 1011 10 16.09344 0 0
5:15 am 05:15 Cloudy 57 14 50 10 77 77 NNW 8 13 29.85 1011 10 16.09344 0 0
5:35 am 05:35 Cloudy 57 14 48 9 72 72 NNW 6 9 29.85 1011 10 16.09344 0 0
5:55 am 05:55 Cloudy with Light Rain 57 14 48 9 72 72 NNW 6 9 29.85 1011 10 16.09344 0 0
6:15 am 06:15 Cloudy 57 14 48 9 72 72 NNW 8 13 29.85 1011 10 16.09344 0 0
6:35 am 06:35 Cloudy 57 14 48 9 72 72 NW 9 15 29.88 1012 10 16.09344 0 0
6:55 am 06:55 Cloudy 57 14 48 9 72 72 NW 16 26 29.88 1012 10 16.09344 0 0
7:15 am 07:15 Cloudy 59 15 46 8 63 63 NW 15 24 29.88 1012 10 16.09344 0 0
7:35 am 07:35 Cloudy 59 15 46 8 63 63 WNW 20 31 29.88 1012 10 16.09344 0 0
7:55 am 07:55 Cloudy 57 14 46 8 67 67 NW 13 20 29.91 1013 10 16.09344 0 0
8:15 am 08:15 Cloudy 57 14 46 8 67 67 NW 12 19 29.91 1013 10 16.09344 0 0
8:35 am 08:35 Cloudy with Nearby Thunderstorms 59 15 46 8 63 63 NW 12 19 29.91 1013 10 16.09344 0 0
8:55 am 08:55 Cloudy 59 15 46 8 63 63 NW 13 20 29.94 1014 10 16.09344 0 0
9:15 am 09:15 Cloudy 59 15 46 8 63 63 NNW 10 17 29.94 1014 10 16.09344 0 0
9:35 am 09:35 Cloudy 59 15 46 8 63 63 NNW 9 15 29.94 1014 10 16.09344 0 0
9:55 am 09:55 Mostly Cloudy 59 15 46 8 63 63 NNW 10 17 29.94 1014 10 16.09344 0 0
10:15 am 10:15 Partly Cloudy 61 16 48 9 63 63 NW 13 20 29.94 1014 10 16.09344 0 0
10:35 am 10:35 Sunny 63 17 48 9 59 59 WNW 12 19 29.94 1014 10 16.09344 0 0
10:55 am 10:55 Sunny 63 17 48 9 59 59 NW 13 20 29.94 1014 10 16.09344 0 0
11:15 am 11:15 Sunny 64 18 48 9 56 56 NW 16 26 29.94 1014 10 16.09344 0 0
11:35 am 11:35 Sunny 64 18 48 9 56 56 NW 16 26 29.94 1014 10 16.09344 0 0
11:55 am 11:55 Sunny 64 18 48 9 56 56 NW 12 19 29.94 1014 10 16.09344 0 0
12:15 pm 12:15 Sunny 66 19 48 9 52 52 NNW 14 22 29.94 1014 10 16.09344 0 0
12:35 pm 12:35 Sunny 66 19 48 9 52 52 NW 9 15 29.94 1014 10 16.09344 0 0
12:55 pm 12:55 Sunny 68 20 48 9 49 49 NW 16 26 29.94 1014 10 16.09344 0 0
1:15 pm 13:15 Sunny 68 20 46 8 46 46 NNW 13 20 29.94 1014 10 16.09344 0 0
1:35 pm 13:35 Sunny 68 20 46 8 46 46 WNW 16 26 29.94 1014 10 16.09344 0 0
1:55 pm 13:55 Sunny 68 20 46 8 46 46 WNW 13 20 29.94 1014 10 16.09344 0 0
2:15 pm 14:15 Sunny 70 21 46 8 43 43 NW 15 24 29.94 1014 10 16.09344 0 0
2:35 pm 14:35 Sunny 70 21 45 7 40 40 NW 18 30 29.94 1014 10 16.09344 0 0
2:55 pm 14:55 Sunny 68 20 45 7 43 43 NNW 16 26 29.94 1014 10 16.09344 0 0
3:15 pm 15:15 Sunny 68 20 45 7 43 43 NW 16 26 29.94 1014 10 16.09344 0 0
3:35 pm 15:35 Sunny 68 20 45 7 43 43 WNW 16 26 29.94 1014 10 16.09344 0 0
3:55 pm 15:55 Sunny 68 20 43 6 40 40 NNW 15 24 29.94 1014 10 16.09344 0 0
4:15 pm 16:15 Sunny 68 20 43 6 40 40 NW 18 30 29.97 1015 10 16.09344 0 0
4:35 pm 16:35 Sunny 66 19 43 6 43 43 WNW 13 20 29.97 1015 10 16.09344 0 0
4:55 pm 16:55 Sunny 64 18 45 7 49 49 NW 12 19 29.97 1015 10 16.09344 0 0
5:15 pm 17:15 Sunny 64 18 45 7 49 49 WNW 10 17 29.97 1015 10 16.09344 0 0
5:35 pm 17:35 Sunny 63 17 45 7 52 52 WNW 12 19 29.97 1015 10 16.09344 0 0
5:55 pm 17:55 Clear 61 16 45 7 55 55 WNW 14 22 29.97 1015 10 16.09344 0 0
6:15 pm 18:15 Clear 59 15 43 6 55 55 WNW 8 13 29.97 1015 10 16.09344 0 0
6:35 pm 18:35 Clear 61 16 43 6 52 52 WNW 8 13 30 1016 10 16.09344 0 0
6:55 pm 18:55 Clear 59 15 45 7 59 59 WNW 10 17 30 1016 10 16.09344 0 0
7:15 pm 19:15 Clear 59 15 45 7 59 59 WNW 9 15 30 1016 10 16.09344 0 0
7:35 pm 19:35 Clear 59 15 45 7 59 59 WNW 10 17 30 1016 10 16.09344 0 0
7:55 pm 19:55 Clear 59 15 45 7 59 59 WNW 9 15 30 1016 10 16.09344 0 0
8:15 pm 20:15 Clear 59 15 45 7 59 59 N 3 6 30.03 1017 10 16.09344 0 0
8:35 pm 20:35 Clear 57 14 45 7 63 63 NW 3 6 30.03 1017 10 16.09344 0 0
8:55 pm 20:55 Clear 57 14 45 7 63 63 NW 5 7 30.06 1018 10 16.09344 0 0
9:15 pm 21:15 Clear 55 13 45 7 67 67 NW 7 11 30.06 1018 10 16.09344 0 0
9:35 pm 21:35 Clear 54 12 45 7 72 72 NNW 6 9 30.06 1018 10 16.09344 0 0
9:55 pm 21:55 Clear 54 12 45 7 72 72 NW 9 15 30.06 1018 10 16.09344 0 0
10:15 pm 22:15 Clear 54 12 45 7 72 72 NW 10 17 30.06 1018 10 16.09344 0 0
10:35 pm 22:35 Clear 52 11 45 7 77 77 NW 9 15 30.06 1018 10 16.09344 0 0
10:55 pm 22:55 Clear 50 10 43 6 76 76 NW 9 15 30.09 1019 10 16.09344 0 0
11:15 pm 23:15 Clear 52 11 45 7 77 77 NW 9 15 30.06 1018 10 16.09344 0 0
11:35 pm 23:35 Clear 54 12 45 7 72 72 undefined N/A 30.06 1018 10 16.09344 0 0
11:55 pm 23:55 Clear 52 11 45 7 77 77 undefined N/A 30.06 1018 10 16.09344 0 0

Powered by AerisWeather